[[{"header":{"parameterUnit":"m.s-1","parameterCategory":1,"la1":30.2991,"la2":30.254,"lo1":-89.0895,"lo2":-89.0444,"dy":0.0017,"dx":0.0017,"nx":28,"ny":28,"refTime":"2025-04-27T03:00:00:Z","depth":0,"parameterNumber":2,"parameterNumberName":"U-component_of_WINDS"},"data":[0,0,0,0,0,0,0,0,0,0,0,0,0,0,0,0,0,0,0,0,0,0,0,0,0,0,0,0,0,0,0,0,0,0,0,0,0,0,0,0,0,0,0,0,0,0,0,0,0,0,0,0,0,0,0,0,0,0,-0.7133,-0.7133,0,-0.7073,-0.7072,-0.7071,-0.7075,-0.7076,-0.7077,-0.7078,-0.7013,-0.701,-0.7008,0,0,0,0,0,0,0,0,0,0,0,0,0,-0.7253,-0.725,-0.7134,-0.7133,-0.7132,-0.7073,-0.7072,-0.7071,-0.7075,-0.7076,-0.7077,-0.7078,-0.7014,-0.7011,-0.7008,0,0,0,0,0,0,0,0,0,0,0,0,0,-0.7197,-0.725,-0.7134,-0.7127,-0.7126,-0.7073,-0.7072,-0.7071,-0.7075,-0.7076,-0.7078,-0.7079,-0.7015,-0.7011,-0.7007,-0.6956,0,0,-0.6995,-0.6994,0,0,0,0,0,0,0,0,-0.72,-0.7193,-0.7129,-0.7127,-0.7126,-0.7083,-0.709,-0.7032,-0.7075,-0.7094,-0.7078,-0.708,-0.7035,-0.7029,-0.7015,-0.6953,-0.695,-0.6995,-0.6993,-0.6991,-0.699,0,0,0,0,0,0,0,-0.7204,-0.7196,-0.7109,-0.7128,-0.7126,-0.7127,-0.7121,-0.7079,-0.7058,-0.7093,-0.7093,-0.7086,-0.7034,-0.7019,-0.7014,-0.6949,-0.6995,-0.6992,-0.6989,-0.6988,-0.6847,-0.6845,0,0,0,0,0,0,-0.721,-0.7199,-0.7111,-0.7108,-0.7167,-0.7124,-0.7117,-0.7095,-0.7058,-0.7054,-0.7085,-0.7086,-0.7025,-0.7018,-0.7011,-0.6951,-0.6991,-0.6987,-0.6985,-0.6848,-0.6846,-0.6845,0,0,0,0,0,0,-0.7212,-0.7202,-0.7114,-0.7153,-0.7142,-0.712,-0.7096,-0.7093,-0.7078,-0.7052,-0.7048,-0.7073,-0.7025,-0.7017,-0.6971,-0.6949,-0.6986,-0.6982,-0.685,-0.6847,-0.6845,-0.6829,0,0,0,0,0,0,-0.7216,-0.7203,-0.7183,-0.7153,-0.714,-0.7074,-0.7095,-0.7091,-0.7072,-0.7073,-0.704,-0.7035,-0.7026,-0.6977,-0.6967,-0.6944,-0.6979,-0.6851,-0.6849,-0.6846,-0.6832,-0.6827,-0.6823,0,0,0,0,0,-0.722,-0.7179,-0.7182,-0.7171,-0.7115,-0.7073,-0.7066,-0.7056,-0.707,-0.705,-0.7034,-0.7037,-0.6953,-0.6972,-0.6961,-0.6937,-0.6853,-0.6849,-0.6846,-0.6834,-0.6828,-0.6823,0,0,0,0,0,0,-0.7205,-0.7175,-0.7177,-0.7126,-0.7102,-0.7074,-0.7048,-0.705,-0.7021,-0.7023,-0.7012,-0.7004,-0.6959,-0.6943,-0.6965,-0.6888,-0.6905,-0.6899,-0.6899,-0.6893,-0.6889,-0.6893,-0.6976,0,0,0,0,0,-0.7197,-0.7166,-0.7141,-0.7098,-0.7086,-0.7069,-0.7051,-0.7046,-0.702,-0.701,-0.699,-0.6965,-0.6934,-0.6913,-0.6882,-0.683,-0.6824,-0.6809,-0.6804,-0.6801,-0.6796,-0.677,-0.6763,-0.6834,-0.6834,-0.6834,0,0,-0.7177,-0.7157,-0.7137,-0.7095,-0.7075,-0.7044,-0.706,-0.7025,-0.7002,-0.7004,-0.696,-0.6946,-0.6917,-0.6869,-0.6847,-0.6854,-0.6776,-0.6797,-0.6794,-0.6791,-0.6766,-0.6759,-0.6754,-0.6832,-0.6832,-0.6833,0,0,-0.7126,-0.7107,-0.7071,-0.7052,-0.7024,-0.7014,-0.7006,-0.6978,-0.6968,-0.6925,-0.6927,-0.6899,-0.6844,-0.6824,-0.6807,-0.6754,-0.6756,-0.6744,-0.672,-0.6695,-0.669,-0.6685,-0.6667,-0.6661,-0.6739,-0.6739,-0.6739,0,-0.7105,-0.7058,-0.7051,-0.7017,-0.6999,-0.7002,-0.6966,-0.6948,-0.6911,-0.6898,-0.6908,-0.6842,-0.6822,-0.6771,-0.6759,-0.6744,-0.6735,-0.6747,-0.6691,-0.6686,-0.6681,-0.6664,-0.6658,-0.6738,-0.6738,-0.6738,-0.6738,0,-0.7034,-0.7002,-0.6976,-0.6943,-0.6922,-0.6886,-0.6875,-0.6855,-0.6853,-0.6842,-0.6799,-0.6777,-0.6743,-0.6731,-0.6727,-0.668,-0.6686,-0.6694,-0.6711,-0.6674,-0.6658,-0.6651,-0.6736,-0.6737,-0.6737,-0.6737,0,0,-0.6969,-0.6936,-0.6926,-0.6913,-0.6884,-0.6859,-0.6825,-0.6794,-0.6777,-0.6753,-0.6725,-0.6681,-0.6689,-0.6669,-0.6664,-0.6643,-0.6604,-0.6653,-0.6653,-0.6646,-0.6553,-0.6547,-0.654,-0.6606,-0.6605,-0.6604,-0.6555,0,-0.6915,-0.6856,-0.6851,-0.6798,-0.6769,-0.6774,-0.6745,-0.6724,-0.6714,-0.6689,-0.6677,-0.6647,-0.6659,-0.6648,-0.6627,-0.6613,-0.6585,-0.6617,-0.658,-0.6579,-0.6587,-0.6531,-0.6524,-0.6479,-0.6549,-0.6548,-0.6547,0,-0.6844,-0.682,-0.6765,-0.6744,-0.6731,-0.6705,-0.6678,-0.6653,-0.6631,-0.6626,-0.6607,-0.6606,-0.6572,-0.6592,-0.6546,-0.6568,-0.6553,-0.6545,-0.6543,-0.6538,-0.656,-0.6526,-0.6465,-0.6458,-0.6537,-0.6538,-0.6538,0,-0.6804,-0.6758,-0.6719,-0.6707,-0.6681,-0.6663,-0.6651,-0.6631,-0.6614,-0.659,-0.6579,-0.6551,-0.6536,-0.6515,-0.6507,-0.6522,-0.6462,-0.6481,-0.6457,-0.6458,-0.6444,-0.6444,-0.638,-0.6434,-0.6434,-0.6434,-0.6434,0,-0.6744,-0.6711,-0.6701,-0.6677,-0.6641,-0.6636,-0.66,-0.6589,-0.6571,-0.6546,-0.6548,-0.6525,-0.6516,-0.6491,-0.6485,-0.6449,-0.6442,-0.6437,-0.6436,-0.6437,-0.6438,-0.6427,-0.643,-0.6432,-0.6433,-0.6433,-0.6433,0,-0.6692,-0.6684,-0.6643,-0.6624,-0.6618,-0.6592,-0.6575,-0.6552,-0.6545,-0.6513,-0.6505,-0.6492,-0.6464,-0.6455,-0.6419,-0.6416,-0.6374,-0.6375,-0.6382,-0.6382,-0.6359,-0.6362,-0.6285,-0.6275,-0.6336,-0.6335,-0.6335,0,-0.6655,-0.6629,-0.6608,-0.6592,-0.658,-0.6554,-0.6538,-0.6533,-0.6516,-0.6491,-0.6472,-0.6445,-0.6422,-0.6377,-0.6364,-0.6338,-0.6339,-0.6314,-0.6335,-0.6338,-0.634,-0.6342,-0.634,-0.631,-0.6309,-0.6309,-0.6308,0,-0.659,-0.6588,-0.6565,-0.6541,-0.6522,-0.6502,-0.6483,-0.647,-0.6463,-0.6444,-0.6416,-0.6399,-0.6365,-0.6338,-0.6312,-0.63,-0.6303,-0.6302,-0.6296,-0.6296,-0.6302,-0.63,-0.6372,-0.6304,-0.6304,-0.6304,-0.6305,-0.6305,-0.6544,-0.6523,-0.6506,-0.648,-0.6467,-0.645,-0.6429,-0.642,-0.6397,-0.637,-0.6369,-0.6339,-0.6321,-0.6287,-0.6274,-0.6251,-0.6258,-0.6248,-0.6246,-0.6243,-0.6242,-0.6306,-0.6246,-0.6246,-0.6247,-0.6247,-0.6247,0,-0.648,-0.6471,-0.6447,-0.6423,-0.6403,-0.641,-0.6391,-0.6374,-0.6348,-0.6331,-0.631,-0.628,-0.6254,-0.6242,-0.6217,-0.6201,-0.6202,-0.6195,-0.6196,-0.6193,-0.6237,-0.6245,-0.6194,-0.6194,-0.6194,-0.6195,-0.6195,-0.6195,-0.6445,-0.641,-0.6407,-0.6367,-0.6357,-0.6329,-0.6317,-0.6303,-0.629,-0.6256,-0.6236,-0.6228,-0.6214,-0.6189,-0.6166,-0.6163,-0.6154,-0.6146,-0.6144,-0.6185,-0.619,-0.6195,-0.6203,-0.6144,-0.6144,-0.6103,-0.6103,-0.6102]},{"header":{"parameterUnit":"m.s-1","parameterCategory":1,"la1":30.2991,"la2":30.254,"lo1":-89.0895,"lo2":-89.0444,"dy":0.0017,"dx":0.0017,"nx":28,"ny":28,"refTime":"2025-04-27T03:00:00:Z","depth":0,"parameterNumber":3,"parameterNumberName":"V-component_of_WINDS"},"data":[0,0,0,0,0,0,0,0,0,0,0,0,0,0,0,0,0,0,0,0,0,0,0,0,0,0,0,0,0,0,0,0,0,0,0,0,0,0,0,0,0,0,0,0,0,0,0,0,0,0,0,0,0,0,0,0,0,0,3.4476,3.4476,0,3.447,3.447,3.447,3.4501,3.4502,3.4503,3.4504,3.4494,3.4493,3.4492,0,0,0,0,0,0,0,0,0,0,0,0,0,3.451,3.4509,3.4476,3.4476,3.4476,3.447,3.447,3.447,3.4501,3.4502,3.4503,3.4504,3.4494,3.4493,3.4492,0,0,0,0,0,0,0,0,0,0,0,0,0,3.4499,3.4509,3.4476,3.4491,3.4492,3.447,3.447,3.447,3.4501,3.4502,3.4504,3.4505,3.4495,3.4493,3.4492,3.4454,0,0,3.4487,3.4486,0,0,0,0,0,0,0,0,3.4499,3.4498,3.4489,3.449,3.4491,3.4488,3.4479,3.4465,3.4501,3.4498,3.4504,3.4506,3.4491,3.4489,3.4485,3.4454,3.4453,3.4486,3.4485,3.4485,3.4484,0,0,0,0,0,0,0,3.45,3.4498,3.4474,3.4489,3.449,3.4497,3.4496,3.4476,3.4486,3.4498,3.45,3.4499,3.4492,3.4487,3.4485,3.4453,3.4486,3.4485,3.4484,3.4483,3.4389,3.4387,0,0,0,0,0,0,3.45,3.4498,3.4474,3.4474,3.4499,3.4495,3.4495,3.4488,3.4487,3.4488,3.4498,3.4501,3.4489,3.4487,3.4485,3.444,3.4485,3.4483,3.4482,3.439,3.4388,3.4387,0,0,0,0,0,0,3.45,3.4497,3.4474,3.4487,3.4484,3.4493,3.4485,3.4487,3.4482,3.4487,3.4489,3.4492,3.449,3.4487,3.4461,3.444,3.4482,3.4481,3.4392,3.4389,3.4387,3.4349,0,0,0,0,0,0,3.4501,3.4497,3.4484,3.4486,3.4484,3.4452,3.4483,3.4486,3.448,3.4483,3.4481,3.4482,3.4491,3.4464,3.446,3.4438,3.448,3.4394,3.4391,3.4388,3.4352,3.4346,3.434,0,0,0,0,0,3.4502,3.4473,3.4483,3.448,3.4467,3.4451,3.4449,3.4461,3.4478,3.4464,3.4467,3.4482,3.4443,3.4461,3.4457,3.4434,3.4395,3.4392,3.4388,3.4355,3.4347,3.434,0,0,0,0,0,0,3.4467,3.4474,3.4485,3.4456,3.4453,3.4456,3.4439,3.4452,3.4443,3.4446,3.446,3.4459,3.443,3.443,3.445,3.4397,3.4422,3.4417,3.4398,3.439,3.4385,3.4384,3.4478,0,0,0,0,0,3.4456,3.4443,3.4449,3.4423,3.4421,3.443,3.4423,3.4432,3.4429,3.4427,3.4429,3.4423,3.441,3.44,3.4388,3.4353,3.4352,3.4335,3.4329,3.4324,3.432,3.4299,3.4291,3.4375,3.4375,3.4375,0,0,3.4433,3.4435,3.4426,3.4416,3.4414,3.4399,3.4428,3.4411,3.44,3.4424,3.44,3.44,3.4396,3.4364,3.435,3.4363,3.4296,3.432,3.4316,3.4314,3.4294,3.4286,3.4279,3.4373,3.4373,3.4374,0,0,3.4382,3.4383,3.4361,3.4359,3.4357,3.4363,3.4357,3.4359,3.436,3.4336,3.4354,3.434,3.4317,3.4312,3.4306,3.4254,3.4267,3.4249,3.4217,3.4196,3.419,3.4184,3.4163,3.4155,3.4245,3.4245,3.4245,0,3.4353,3.4332,3.4347,3.4328,3.4323,3.4346,3.4322,3.4319,3.4312,3.4307,3.4322,3.4293,3.4291,3.4258,3.4245,3.4241,3.4233,3.4249,3.419,3.4184,3.4179,3.4159,3.4151,3.4243,3.4243,3.4243,3.4244,0,3.4295,3.428,3.4262,3.4256,3.4248,3.4227,3.4238,3.4228,3.4238,3.4242,3.4216,3.4216,3.4203,3.4196,3.4206,3.4164,3.4171,3.4188,3.4213,3.4168,3.4149,3.4142,3.424,3.424,3.4241,3.4242,0,0,3.4221,3.4224,3.4216,3.4213,3.4213,3.42,3.418,3.4169,3.4159,3.4154,3.4135,3.4115,3.413,3.4124,3.4133,3.4115,3.407,3.4133,3.4133,3.412,3.4022,3.4008,3.3999,3.408,3.4079,3.4078,3.4021,0,3.4169,3.4135,3.4148,3.4112,3.4097,3.4119,3.4101,3.4097,3.4101,3.4088,3.4091,3.4076,3.4098,3.4094,3.4078,3.4079,3.4051,3.4084,3.406,3.406,3.4059,3.399,3.3975,3.3922,3.4014,3.4013,3.4012,0,3.4105,3.4098,3.4061,3.4061,3.4056,3.4039,3.4029,3.4017,3.4013,3.4016,3.4009,3.4022,3.4,3.4027,3.3995,3.4017,3.4009,3.4008,3.4006,3.4002,3.4032,3.3982,3.3905,3.3896,3.4001,3.4002,3.4003,0,3.4052,3.4033,3.4008,3.4005,3.4006,3.3993,3.3992,3.399,3.3982,3.3973,3.3968,3.3956,3.3949,3.3939,3.3947,3.3966,3.3913,3.3941,3.3913,3.3913,3.3899,3.3899,3.3818,3.3897,3.3898,3.3898,3.3898,0,3.3992,3.3968,3.3984,3.3968,3.3941,3.3956,3.3928,3.393,3.3927,3.3911,3.3929,3.3913,3.3926,3.3911,3.3917,3.3889,3.3886,3.3887,3.3888,3.3884,3.3883,3.3876,3.3879,3.3896,3.3896,3.3897,3.3897,0,3.3927,3.3937,3.3911,3.3914,3.3914,3.3894,3.3896,3.388,3.3885,3.3864,3.386,3.3867,3.385,3.3858,3.384,3.3844,3.3807,3.3814,3.3808,3.3809,3.378,3.3782,3.369,3.3677,3.3767,3.3766,3.3765,0,3.3887,3.3869,3.387,3.3861,3.386,3.3845,3.3837,3.3851,3.3842,3.3835,3.382,3.3805,3.3793,3.3764,3.3766,3.3752,3.3758,3.3727,3.3756,3.3751,3.3754,3.3754,3.3752,3.372,3.3719,3.3718,3.3717,0,3.3814,3.382,3.3809,3.3799,3.3789,3.3781,3.3775,3.3767,3.378,3.3768,3.3751,3.3742,3.3724,3.3707,3.3695,3.3692,3.3706,3.3709,3.3701,3.3695,3.3691,3.369,3.379,3.371,3.3711,3.3711,3.3712,3.3712,3.3759,3.3743,3.3742,3.3728,3.3725,3.3719,3.3704,3.3708,3.3694,3.3681,3.369,3.3669,3.3664,3.3649,3.3645,3.3627,3.3639,3.3629,3.3626,3.3622,3.3618,3.3696,3.3625,3.3626,3.3626,3.3626,3.3626,0,3.3685,3.3685,3.3673,3.3664,3.3653,3.3669,3.3663,3.3651,3.3634,3.3629,3.3617,3.3596,3.3581,3.3582,3.3567,3.3553,3.3558,3.3548,3.3548,3.3546,3.3609,3.3616,3.3543,3.3543,3.3543,3.3543,3.3543,3.3544,3.3645,3.3619,3.3625,3.3596,3.3596,3.3577,3.3572,3.3566,3.3562,3.3539,3.3526,3.3528,3.3524,3.3509,3.3494,3.3495,3.3487,3.3474,3.3477,3.3534,3.3542,3.355,3.3557,3.3473,3.3473,3.3416,3.3415,3.3415]}]]